FW6209 Weather Reports


Display with metric or nautical units.
time (UTC)temp
F
wind
direction
speed
MPH
gust
MPH
rain 1hr
in
rain 24hr
in
rain mn
in
humidity
%
barometer
mb
20260504151147 55 239 0.0 5.0 0.00 0.01 0.01 83 1014.3
20260504150647 54 236 0.0 3.0 0.00 0.01 0.01 83 1014.2
20260504150144 54 236 0.0 5.0 0.00 0.01 0.01 84 1014.2
20260504140916 53 245 0.0 3.0 0.00 0.01 0.01 85 1013.9
20260504140415 52 213 0.0 3.0 0.00 0.01 0.01 84 1014.0
20260504130412 51 242 0.0 0.0 0.00 0.02 0.01 88 1013.6
20260504110359 52 236 1.0 8.0 0.00 0.03 0.01 89 1013.3
20260504100355 53 245 2.0 7.0 0.00 0.03 0.01 91 1013.0
20260504081843 53 259 0.0 5.0 0.01 0.03 0.01 90 1013.9
20260504081344 53 224 1.0 5.0 0.01 0.03 0.01 90 1014.3
20260504081336 53 229 2.0 5.0 0.01 0.03 0.01 90 1014.4
20260504080344 53 244 1.0 5.0 0.01 0.03 0.01 90 1014.4
20260504070340 55 269 4.0 13.0 0.00 0.02 0.00 87 1014.6
20260504060236 56 235 0.0 5.0 0.00 0.02 0.02 83 1013.4
20260504050629 56 253 0.0 3.0 0.00 0.02 0.02 81 1013.9
20260504050352 56 229 0.0 0.0 0.00 0.02 0.02 81 1014.1
20260504045616 56 239 0.0 0.0 0.00 0.02 0.02 81 1013.9
20260504045337 56 234 0.0 0.0 0.00 0.02 0.02 81 1013.9
20260504044827 56 242 0.0 0.0 0.00 0.02 0.02 81 1014.0
20260504044058 56 250 0.0 2.0 0.00 0.02 0.02 80 1013.8
20260504043552 56 227 0.0 2.0 0.00 0.02 0.02 81 1013.7
20260504043046 56 240 0.0 0.0 0.00 0.02 0.02 80 1013.8
20260504042540 56 245 0.0 0.0 0.00 0.02 0.02 80 1013.8
20260504042034 56 260 0.0 4.0 0.00 0.02 0.02 81 1013.8
20260504041528 56 243 0.0 4.0 0.00 0.02 0.02 80 1013.7
20260504041247 56 266 0.0 4.0 0.00 0.02 0.02 81 1013.8
20260504040516 56 265 0.0 4.0 0.00 0.02 0.02 80 1013.7
20260504040011 56 217 0.0 4.0 0.00 0.02 0.02 80 1013.4
20260504035504 56 259 0.0 4.0 0.00 0.02 0.02 80 1013.6
20260504034958 56 253 0.0 4.0 0.00 0.02 0.02 80 1013.8
20260504034452 56 200 1.0 4.0 0.00 0.02 0.02 80 1013.8
20260504033946 56 252 1.0 4.0 0.00 0.02 0.02 80 1013.7
20260504033440 56 257 0.0 4.0 0.00 0.02 0.02 80 1013.7
20260504032934 56 231 0.0 2.0 0.00 0.02 0.02 79 1013.6
20260504032428 56 238 0.0 2.0 0.00 0.02 0.02 79 1013.6
20260504031924 56 238 0.0 2.0 0.00 0.02 0.02 79 1013.4
20260504031416 56 234 0.0 2.0 0.00 0.02 0.02 79 1013.4
20260504030910 56 254 0.0 7.0 0.00 0.02 0.02 79 1013.2
20260504030405 56 249 1.0 7.0 0.00 0.02 0.02 79 1013.3
20260504030122 56 234 1.0 6.0 0.00 0.02 0.02 78 1013.2
20260504025352 56 220 1.0 6.0 0.00 0.02 0.02 78 1013.1
20260504025105 56 240 1.0 7.0 0.00 0.02 0.02 77 1013.1
20260504024340 57 232 1.0 7.0 0.00 0.02 0.02 77 1012.9
20260504023834 57 226 2.0 6.0 0.00 0.02 0.02 77 1012.9
20260504023329 57 234 2.0 6.0 0.00 0.02 0.02 76 1013.1
20260504022822 57 213 2.0 6.0 0.00 0.02 0.02 76 1013.0
20260504022316 57 188 1.0 6.0 0.00 0.02 0.02 75 1013.1
20260504021810 57 271 2.0 9.0 0.00 0.02 0.02 76 1013.1
20260504021304 57 219 3.0 9.0 0.00 0.02 0.02 75 1013.0
20260504020757 57 180 2.0 9.0 0.00 0.02 0.02 75 1013.0
20260504020254 57 224 2.0 12.0 0.00 0.02 0.02 75 1013.1
20260504015746 57 236 2.0 12.0 0.00 0.02 0.02 74 1012.9
20260504015240 57 167 3.0 12.0 0.00 0.02 0.02 74 1012.8
20260504014734 58 224 4.0 12.0 0.00 0.02 0.02 74 1012.8
20260504014454 58 231 4.0 10.0 0.00 0.02 0.02 74 1012.7
20260504013722 58 225 3.0 10.0 0.00 0.02 0.02 73 1012.7
20260504013216 58 234 2.0 10.0 0.00 0.02 0.02 73 1012.5
20260504012710 58 194 2.0 9.0 0.00 0.02 0.02 72 1012.4
20260504012204 58 173 2.0 8.0 0.00 0.02 0.02 71 1012.6
20260504011658 58 260 4.0 9.0 0.00 0.02 0.02 71 1012.5
20260504011152 59 225 4.0 14.0 0.00 0.02 0.02 70 1012.4
20260504010646 59 230 4.0 14.0 0.00 0.02 0.02 69 1012.4
20260504010140 59 242 6.0 13.0 0.00 0.02 0.02 68 1012.4
20260504005634 59 249 6.0 14.0 0.00 0.02 0.02 66 1012.2
20260504005128 60 300 5.0 12.0 0.00 0.02 0.02 66 1012.0
20260504004622 60 246 5.0 17.0 0.00 0.02 0.02 65 1011.9
20260504004611 60 227 4.0 17.0 0.00 0.02 0.02 66 1012.0
20260504003832 60 270 6.0 17.0 0.00 0.02 0.02 66 1011.8
20260504003323 60 237 7.0 17.0 0.00 0.02 0.02 63 1011.8
20260504002559 61 258 7.0 17.0 0.00 0.02 0.02 63 1011.8
20260504002052 61 217 7.0 17.0 0.00 0.02 0.02 63 1011.7
20260504001809 62 249 6.0 17.0 0.00 0.02 0.02 63 1011.7
20260504001041 62 252 6.0 13.0 0.00 0.02 0.02 62 1011.6
20260504001024 63 221 5.0 18.0 0.00 0.02 0.02 63 1011.5
20260504000028 62 238 5.0 18.0 0.00 0.02 0.02 63 1011.3
20260503235522 63 223 5.0 18.0 0.00 0.02 0.02 62 1011.1
20260503235244 63 240 6.0 18.0 0.00 0.02 0.02 62 1011.1
20260503234510 64 215 6.0 12.0 0.00 0.02 0.02 60 1011.1
20260503234006 65 238 5.0 12.0 0.00 0.02 0.02 60 1011.1
20260503233458 65 257 4.0 12.0 0.00 0.02 0.02 60 1011.3
20260503233220 65 234 3.0 12.0 0.00 0.02 0.02 61 1011.1
20260503232446 65 219 3.0 12.0 0.00 0.02 0.02 59 1011.1
20260503231942 65 212 3.0 12.0 0.00 0.02 0.02 62 1011.3
20260503231434 65 182 5.0 12.0 0.00 0.02 0.02 61 1011.4
20260503230928 65 235 4.0 12.0 0.00 0.02 0.02 60 1011.7
20260503230422 66 207 3.0 10.0 0.00 0.02 0.02 61 1011.6
20260503225917 66 257 3.0 10.0 0.00 0.02 0.02 61 1011.5
20260503225410 66 253 1.0 9.0 0.00 0.02 0.02 61 1011.7
20260503224905 65 225 1.0 7.0 0.00 0.02 0.02 63 1011.7
20260503224359 65 148 1.0 7.0 0.00 0.02 0.02 64 1011.7
20260503224114 65 236 1.0 7.0 0.00 0.02 0.02 64 1011.7
20260503223346 65 246 1.0 8.0 0.00 0.02 0.02 64 1011.7
20260503222840 65 252 2.0 10.0 0.00 0.02 0.02 65 1011.9
20260503222334 64 234 3.0 10.0 0.00 0.02 0.02 65 1012.1
20260503221828 64 236 4.0 11.0 0.00 0.02 0.02 67 1012.1
20260503221322 64 233 5.0 11.0 0.00 0.02 0.02 67 1012.0
20260503220816 64 295 4.0 11.0 0.00 0.02 0.02 67 1012.0
20260503220311 64 248 3.0 10.0 0.00 0.02 0.02 67 1012.1
20260503215805 64 165 2.0 10.0 0.00 0.02 0.02 67 1012.2
20260503215258 64 240 1.0 13.0 0.00 0.02 0.02 67 1012.2
20260503214752 64 270 2.0 13.0 0.00 0.02 0.02 67 1012.2
20260503214246 64 240 5.0 13.0 0.00 0.02 0.02 66 1012.1
20260503213740 65 248 4.0 13.0 0.00 0.02 0.02 66 1012.3
20260503213236 64 235 2.0 12.0 0.00 0.02 0.02 68 1012.4
20260503212728 64 252 3.0 12.0 0.00 0.02 0.02 68 1012.4
20260503212448 63 252 4.0 12.0 0.00 0.02 0.02 68 1012.4
20260503211716 63 233 3.0 12.0 0.00 0.02 0.02 69 1012.6
20260503211210 63 242 4.0 12.0 0.00 0.02 0.02 69 1012.6
20260503210705 63 238 5.0 12.0 0.00 0.02 0.02 69 1012.5
20260503210419 63 239 5.0 12.0 0.00 0.02 0.02 69 1012.5
20260503205653 63 226 4.0 12.0 0.00 0.02 0.02 69 1012.6
20260503205146 63 256 4.0 12.0 0.00 0.02 0.02 68 1012.6
20260503205133 63 234 5.0 12.0 0.00 0.02 0.02 69 1012.6
20260503204134 63 220 4.0 10.0 0.00 0.02 0.02 71 1012.7
20260503203628 62 213 2.0 9.0 0.00 0.02 0.02 71 1012.7
20260503203123 62 239 3.0 11.0 0.00 0.02 0.02 70 1012.8
20260503202622 62 247 3.0 11.0 0.00 0.02 0.02 72 1012.8
20260503202122 62 266 3.0 12.0 0.00 0.02 0.02 73 1012.8
20260503201626 61 236 3.0 12.0 0.00 0.02 0.02 73 1012.9
20260503201120 61 238 2.0 7.0 0.00 0.02 0.02 73 1012.9
20260503200619 62 240 2.0 13.0 0.00 0.02 0.02 73 1013.0
20260503200120 61 239 4.0 13.0 0.00 0.02 0.02 73 1012.9
20260503195618 61 232 5.0 13.0 0.00 0.02 0.02 74 1013.0
20260503195117 61 257 6.0 13.0 0.00 0.02 0.02 73 1012.9
20260503194617 62 208 6.0 13.0 0.00 0.02 0.02 73 1012.9
20260503194117 62 229 3.0 11.0 0.00 0.02 0.02 75 1012.9
20260503193618 61 236 4.0 13.0 0.00 0.02 0.02 75 1013.2
20260503193112 61 240 5.0 13.0 0.00 0.02 0.02 77 1013.1
20260503192606 61 241 5.0 13.0 0.00 0.02 0.02 77 1013.2
20260503192100 61 248 4.0 13.0 0.00 0.02 0.02 76 1013.1
20260503191555 61 254 4.0 11.0 0.00 0.02 0.02 78 1013.2
20260503191048 61 187 5.0 11.0 0.00 0.02 0.02 78 1013.1
20260503190542 61 255 2.0 11.0 0.00 0.02 0.02 79 1013.2
20260503190037 61 256 1.0 7.0 0.00 0.02 0.02 78 1013.3
20260503185530 61 215 1.0 8.0 0.00 0.02 0.02 78 1013.3
20260503185025 61 246 1.0 8.0 0.00 0.02 0.02 79 1013.3
20260503184518 61 261 2.0 8.0 0.00 0.02 0.02 78 1013.3
20260503184012 61 138 1.0 8.0 0.00 0.02 0.02 78 1013.3
20260503183506 61 228 1.0 5.0 0.00 0.02 0.02 79 1013.3
20260503183001 61 252 1.0 5.0 0.00 0.02 0.02 80 1013.3
20260503182454 61 247 2.0 6.0 0.00 0.02 0.02 80 1013.3
20260503181948 61 244 1.0 6.0 0.00 0.02 0.02 81 1013.3
20260503181442 61 238 0.0 4.0 0.00 0.02 0.02 81 1013.3